Location: Cactus School
(34.5700°N, 118.0931°W)
Time: 15:48:04
(UTC-07:00)

deb Explorer IX - Pass Details

Date: 22 April 2024
Orbit: 513 x 892 km, 38.7° (Epoch: 20 May)

Event Time Altitude Azimuth Distance (km) Brightness Sun altitude
Rises 14:48:06 0° 288° (WNW) 3,490 ? 55.5°
Reaches altitude 10° 14:50:40 10° 289° (WNW) 2,570 ? 55.1°
Maximum altitude 14:56:55 82° 18° (NNE) 915 ? 54.0°
Drops below altitude 10° 15:03:05 10° 106° (ESE) 2,532 ? 52.9°
Sets 15:05:36 0° 107° (ESE) 3,435 ? 52.4°
